SCP
0 0 0 0 0 0 0 0 0 0 0 0 0 0 0 0 0 0 0 0 0 0 0 0 0 0 0 0 0 0 0 0 0 0 0 0 0 0
0 0 0 0 0 0 0 0 0 0 0 0 0 0 0 0 0 0 0 0 0 0 0 0 0 0 0 0 0 0 0 0 0 0 0 0 0 0
0 0 0 0 0 0 0 0 0 0 0 0 0 0 0 0 0 0 0 0 0 0 0 0 0 0 0 0 0 0 0 0 0 0 0 0 0 0
0 0 0 0 0 0 0 0 0 0 0 0 0 0 0 0 0 0 0 0 0 0 0 0 0 0 0 0 0 0 0 0 0 0 0 0 0 0
0 0 0 0 0 0 0 0 0 0 0 0 0 0 0 0 0 0 0 0 0 0 0 0 0 0 0 0 0 0 0 0 0 0 0 0 0 0
0 0 0 0 0 0 0 0 0 0 0 0 0 0 0 0 0 0 0 0 0 0 0 0 0 0 0 0 0 0 0 0 0 0 0 0 0 0
0 0 0 0 0 0 0 0 0 0 0 0 0 0 0 0 0 0 0 0 0 0 0 0 0 0 0 0 0 0 0 0 0 0 0 0 0 0
0 0 0 0 0 0 0 0 0 0 0 0 0 0 0 0 0 0 0 0 0 0 0 0 0 0 0 0 0 0 0 0 0 0 0 0 0 0
0 0 0 0 0 0 0 0 0 0 0 0 0 0 0 0 0 0 0 0 0 0 0 0 0 0 0 0 0 0 0 0 0 0 0 0 0 0
0 0 0 0 0 0 0 0 0 0 0 0 0 0 0 0 0 0 0 0 0 0 0 0 0 0 0 0 0 0 0 0 0 0 0 0 0 0
0 0 0 0 0 0 0 0 0 0 0 0 0 0 0 0 0 0 0 0 0 0 0 0 0 0 0 0 0 0 0 0 0 0 0 0 0 0
0 0 0 0 0 0 0 0 0 0 0 0 0 0 0 0 0 0 0 0 0 0 0 0 0 0 0 0 0 0 0 0 0 0 0 0 0 0
0 0 0 0 0 0 0 0 0 0 0 0 0 0 0 0 0 0 0 0 0 0 0 0 0 0 0 0 0 0 0 0 0 0 0 0 0 0
0 0 0 0 0 0 0 0 0 0 0 0 0 0 0 0 0 0 0 0 0 0 0 0 0 0 0 0 0 0 0 0 0 0 0 0 0 0
0 0 0 0 0 0 0 0 0 0 0 0 0 0 0 0 0 0 0 0 0 0 0 0 0 0 0 0 0 0 0 0 0 0 0 0 0 0
0 0 0 0 0 0 0 0 0 0 0 0 0 0 0 0 0 0 0 0 0 0 0 0 0 0 0 0 0 0 0 0 0 0 0 0 0 0
0 0 0 0 0 0 0 0 0 0 0 0 0 0 0 0 0 0 0 0 0 0 0 0 0 0 0 0 0 0 0 0 0 0 0 0 0 0
0 0 0 0 0 0 0 0 0 0 0 0 0 0 0 0 0 0 0 0 0 0 0 0 0 0 0 0 0 0 -0 -0 -0 0 0 0 0 0
0 0 0 0 0 0 0 0 0 0 0 0 0 0 0 0 0 0 0 0 0 0 0 0 0 0 0 0 0 0 -0 -0 -0 0 0 0 0 0
0 0 0 0 0 0 0 0 0 0 0 0 0 0 0 0 0 0 0 0 0 0 0 0 0 0 0 0 0 0 0 0 0 0 0 0 0 0
0 0 0 0 0 0 -0 -0 -0 -0 -0 -0 0 0 0 0 0 0 0 0 0 0 0 0 0 0 0 0 0 0 0 0 0 0 0 0 0 0
0 0 0 0 0 0 -0 -0 -0 -0 -0 -0 -0 0 0 0 0 0 0 0 0 0 0 0 0 0 0 0 0 0 0 0 0 0 0 0 0 0
0 0 -0 -0 -0 -0 -0 -0 0 0 -0 -0 0 0 0 0 0 0 0 0 0 0 0 0 0 0 0 0 0 0 0 0 0 0 0 0 0 0
Wind_Speed
2 2 2 2 2 2 2 3 3 2 2 1 1 2 1 1 2 2 2 4 4 3 2 1 1 1 0 0 0 1 1 2 1 1 1 0 1 2
1 1 1 1 1 1 2 2 2 3 2 1 1 1 2 2 3 2 2 5 6 5 4 3 3 3 2 2 1 1 1 2 2 2 2 1 2 1
1 1 1 1 1 1 1 1 1 2 2 1 0 1 2 2 3 2 3 3 4 7 6 5 5 4 4 3 3 3 3 3 3 3 3 3 3 3
0 1 0 0 0 0 1 1 1 1 2 1 1 1 2 2 2 3 3 3 4 7 8 8 7 7 6 6 6 5 5 5 5 5 4 4 4 4
1 1 1 1 1 1 1 1 1 1 1 1 0 1 1 2 2 3 3 3 4 5 8 9 10 10 9 8 8 8 7 7 6 6 6 6 5 5
3 3 3 3 3 2 2 2 2 2 2 1 1 1 1 2 2 2 2 3 3 4 6 7 9 10 11 10 10 9 8 8 8 8 7 7 6 6
5 4 5 6 7 5 3 2 3 2 2 2 2 2 1 1 1 1 1 1 3 3 3 4 4 5 6 8 9 9 9 8 8 7 7 7 6 6
5 5 6 7 9 11 11 9 6 4 3 2 2 2 1 1 1 0 0 1 1 2 2 3 3 4 4 4 8 9 8 8 8 8 7 7 7 7
5 5 5 6 6 6 9 11 11 10 7 3 3 1 1 1 0 1 1 2 1 1 1 2 3 3 3 4 8 9 8 8 9 9 8 8 8 7
6 5 5 5 5 5 6 7 7 6 5 4 3 2 2 1 1 1 2 2 2 3 2 2 2 2 3 3 6 8 8 8 8 8 8 7 7 7
6 6 5 5 6 6 6 6 6 5 7 9 7 7 7 7 4 3 3 3 2 2 2 1 1 1 2 2 3 6 6 6 6 6 6 6 5 4
5 5 8 6 6 6 5 5 5 4 4 5 6 7 6 7 7 3 2 2 1 2 2 1 1 1 1 1 2 2 2 3 4 4 4 4 4 2
4 4 4 8 8 7 6 4 4 3 4 4 4 5 5 5 5 4 3 2 2 2 1 1 1 1 1 1 1 1 1 2 2 2 2 3 3 2
3 3 4 7 8 8 6 6 6 5 4 4 4 4 4 4 4 4 5 4 3 2 1 1 1 1 1 1 1 2 1 2 2 2 2 2 2 1
3 6 7 8 7 7 9 9 6 4 4 4 4 3 3 3 3 3 5 5 6 5 4 3 2 1 1 1 1 1 1 1 2 1 2 2 1 1
4 6 8 9 7 6 6 6 5 4 3 3 3 3 3 3 4 4 4 3 4 4 5 5 3 2 1 1 1 1 1 1 1 1 1 1 1 1
4 4 4 4 5 5 4 5 4 4 4 3 3 3 3 3 3 3 3 3 3 3 4 4 4 2 1 0 0 1 1 1 1 1 1 2 2 2
5 4 4 4 3 3 3 3 4 4 3 3 3 3 3 3 3 3 3 3 3 3 3 3 3 2 2 1 1 1 1 1 1 1 1 2 3 2
5 4 3 2 2 2 2 2 2 2 2 3 3 3 2 2 2 3 2 2 2 2 2 2 2 2 2 3 2 1 2 2 2 2 2 2 3 4
3 3 2 2 1 1 1 1 2 2 2 2 2 2 2 2 2 2 2 2 1 1 2 2 2 1 1 2 3 3 3 3 2 2 2 2 3 5
2 1 1 1 1 1 1 1 1 1 2 1 1 2 2 1 1 1 1 1 1 1 2 3 3 3 2 2 2 3 2 3 5 3 3 3 3 3
1 1 1 1 1 1 1 1 1 1 1 1 1 1 1 1 1 1 1 1 1 2 3 3 3 2 1 2 3 4 4 4 3 5 8 6 3 4
2 1 1 1 1 1 1 1 0 0 0 0 0 1 1 1 1 2 2 2 2 2 2 2 2 2 2 2 3 3 5 5 3 3 3 4 9 12
Wind_Direction
217 213 222 237 222 225 213 197 191 227 278 282 308 359 356 15 12 22 21 42 42 49 57 69 82 84 72 24 268 217 170 162 163 152 137 153 276 268
209 207 229 243 234 232 219 213 202 198 229 267 287 350 2 16 41 35 36 46 49 48 49 52 58 59 60 70 69 61 68 89 96 98 89 66 46 24
227 200 246 261 228 240 203 181 189 187 212 270 320 3 21 26 22 31 41 50 49 50 53 56 60 64 68 68 69 73 77 78 78 75 71 62 53 48
89 103 317 335 21 29 124 135 162 182 183 233 326 16 22 26 26 31 40 50 55 53 58 59 61 64 68 74 78 74 70 65 64 65 65 69 74 72
52 66 43 66 56 48 78 94 109 125 154 177 256 31 37 27 29 37 46 42 53 54 59 58 60 63 65 68 71 71 68 65 65 67 68 66 66 68
57 61 63 71 71 59 62 64 83 89 96 110 90 49 40 20 35 36 39 35 36 41 51 56 57 60 60 62 65 66 64 66 67 66 64 63 62 64
59 57 65 71 73 71 73 68 81 89 90 89 79 61 41 29 11 356 42 42 50 35 46 44 45 48 48 53 62 63 64 64 64 66 64 62 62 61
67 59 61 58 67 70 71 70 72 82 89 84 76 73 25 342 329 1 93 54 54 14 31 43 44 50 42 47 54 60 63 64 63 62 62 61 62 64
65 62 61 56 58 67 66 64 60 60 69 95 90 65 22 331 38 74 75 70 68 15 37 55 41 52 41 48 58 61 62 64 66 67 67 64 60 63
60 62 68 56 58 71 75 68 59 49 52 65 75 51 43 45 87 109 113 98 79 49 35 64 37 37 41 39 54 61 59 57 60 65 66 63 60 59
56 55 63 61 56 68 80 77 62 45 53 64 65 58 55 55 67 89 85 93 72 45 26 61 48 34 34 34 43 51 52 53 51 53 54 54 54 57
56 51 56 61 56 60 79 84 73 42 40 44 45 43 46 49 52 60 87 100 87 58 20 42 57 57 57 18 12 29 46 42 37 38 38 42 43 44
71 55 50 59 64 64 70 74 82 71 55 53 49 43 41 40 40 41 44 72 84 68 42 68 70 63 69 350 342 7 20 19 13 15 19 19 19 33
80 66 60 65 66 64 66 66 68 65 62 57 50 39 32 26 26 35 46 51 50 62 62 89 91 100 93 68 21 351 6 18 10 2 3 12 31 39
81 82 77 73 67 61 57 57 57 60 63 61 51 34 20 17 26 37 43 49 55 52 47 38 69 96 98 86 44 6 350 355 2 356 350 357 359 354
73 70 70 67 64 59 52 48 50 54 64 61 47 35 33 41 42 35 39 37 50 41 36 39 41 68 77 73 92 45 354 328 333 344 333 322 320 303
88 69 60 55 55 52 49 44 43 48 52 50 55 53 45 46 41 31 37 44 53 37 20 18 23 37 63 112 75 358 341 336 332 337 317 318 307 294
89 79 73 68 65 60 57 48 42 40 41 51 56 54 52 50 48 41 43 49 51 36 24 11 6 23 43 68 221 271 310 310 313 300 282 292 301 300
88 89 85 79 71 68 63 56 47 37 39 54 58 52 51 52 52 45 39 39 37 25 14 7 11 18 7 357 346 232 255 296 295 288 278 275 286 301
88 101 100 92 86 82 75 62 55 52 52 48 48 46 44 48 45 37 35 33 25 8 1 4 5 350 315 314 308 296 247 246 263 278 284 277 278 282
109 113 120 123 115 103 81 67 65 57 49 43 41 40 42 49 39 28 23 17 12 351 337 332 326 309 273 262 282 301 298 246 236 254 273 285 298 301
145 152 163 162 154 148 123 100 77 65 53 41 20 12 21 32 3 343 337 331 321 313 307 316 334 334 308 304 310 313 316 322 290 249 240 238 272 296
184 193 202 198 184 174 167 158 160 246 229 240 286 311 321 317 306 302 305 304 303 308 310 318 333 331 320 304 306 308 310 314 317 317 303 263 246 255